GW1238 Weather Reports


time (UTC)temp
F
wind
direction
speed
knots
gust
knots
rain 1hr
in
rain 24hr
in
rain mn
in
humidity
%
barometer
mb
20260505230706 73 195 3.5 5.2 0.00 0.00 0.00 56 1015.0
20260505230202 73 203 2.6 5.2 0.00 0.00 0.00 56 1014.8
20260505225658 73 187 0.9 2.6 0.00 0.00 0.00 60 1014.8
20260505225155 73 193 2.6 3.5 0.00 0.00 0.00 60 1014.6
20260505224651 73 187 4.3 5.2 0.00 0.00 0.00 63 1014.4
20260505224149 73 194 2.6 3.5 0.00 0.00 0.00 56 1014.6
20260505223646 72 195 0.0 3.5 0.00 0.00 0.00 57 1015.0
20260505223142 73 100 0.0 1.7 0.00 0.00 0.00 59 1014.9
20260505222638 73 221 0.9 2.6 0.00 0.00 0.00 58 1015.0
20260505222135 73 192 2.6 3.5 0.00 0.00 0.00 56 1014.8
20260505221632 73 208 2.6 3.5 0.00 0.00 0.00 57 1014.8
20260505221128 73 200 3.5 3.5 0.00 0.00 0.00 52 1015.0
20260505220626 74 179 3.5 3.5 0.00 0.00 0.00 56 1015.2
20260505220123 74 189 4.3 6.1 0.00 0.00 0.00 57 1014.9
20260505215621 74 189 5.2 7.0 0.00 0.00 0.00 58 1014.8
20260505215119 74 172 4.3 7.8 0.00 0.00 0.00 47 1015.0
20260505214617 74 173 4.3 6.1 0.00 0.00 0.00 56 1014.8
20260505214113 74 179 4.3 7.0 0.00 0.00 0.00 60 1014.9
20260505213611 74 185 5.2 7.8 0.00 0.00 0.00 57 1014.8
20260505213107 74 178 5.2 7.0 0.00 0.00 0.00 60 1015.0
20260505212603 74 192 7.0 9.6 0.00 0.00 0.00 57 1015.2
20260505212102 74 180 7.8 9.6 0.00 0.00 0.00 56 1015.3
20260505211558 75 204 7.8 8.7 0.00 0.00 0.00 55 1015.0
20260505211055 75 175 7.8 9.6 0.00 0.00 0.00 54 1015.4
20260505210552 75 192 5.2 8.7 0.00 0.00 0.00 56 1015.6
20260505210049 76 191 8.7 8.7 0.00 0.00 0.00 58 1015.4
20260505205546 76 176 9.6 11.3 0.00 0.00 0.00 55 1015.5
20260505205044 76 177 7.0 9.6 0.00 0.00 0.00 52 1015.1
20260505204541 76 180 8.7 12.2 0.00 0.00 0.00 49 1015.2
20260505204038 76 174 8.7 12.2 0.00 0.00 0.00 49 1015.2
20260505203535 76 181 9.6 9.6 0.00 0.00 0.00 51 1015.4
20260505203032 76 179 7.8 7.8 0.00 0.00 0.00 55 1015.5
20260505202528 76 177 7.0 12.2 0.00 0.00 0.00 56 1015.6
20260505202024 76 243 4.3 7.0 0.00 0.00 0.00 53 1015.5
20260505201521 76 191 5.2 11.3 0.00 0.00 0.00 55 1015.6
20260505201018 76 187 8.7 11.3 0.00 0.00 0.00 57 1015.8
20260505200517 76 200 9.6 11.3 0.00 0.00 0.00 55 1016.0
20260505200013 76 190 4.3 7.8 0.00 0.00 0.00 51 1015.9
20260505195509 76 188 11.3 13.0 0.00 0.00 0.00 55 1015.9
20260505195007 77 169 7.8 12.2 0.00 0.00 0.00 52 1015.9
20260505194504 76 185 7.8 12.2 0.00 0.00 0.00 55 1015.8
20260505194004 76 185 9.6 12.2 0.00 0.00 0.00 53 1015.9
20260505193502 76 185 8.7 9.6 0.00 0.00 0.00 54 1016.3
20260505192959 76 188 11.3 13.0 0.00 0.00 0.00 52 1016.3
20260505192457 77 171 10.4 13.0 0.00 0.00 0.00 50 1016.3
20260505191954 76 232 3.5 7.8 0.00 0.00 0.00 50 1016.3
20260505191453 76 180 9.6 12.2 0.00 0.00 0.00 50 1016.4
20260505190950 76 194 7.0 11.3 0.00 0.00 0.00 52 1016.2
20260505190444 76 194 7.8 8.7 0.00 0.00 0.00 48 1016.3
20260505185940 76 187 7.8 9.6 0.00 0.00 0.00 48 1016.1
20260505185438 76 181 9.6 12.2 0.00 0.00 0.00 53 1016.3
20260505184934 76 161 8.7 9.6 0.00 0.00 0.00 46 1016.3
20260505184431 76 188 10.4 12.2 0.00 0.00 0.00 51 1016.5
20260505183927 75 184 7.8 9.6 0.00 0.00 0.00 53 1016.6
20260505183425 76 192 9.6 11.3 0.00 0.00 0.00 55 1016.6
20260505182921 76 175 8.7 12.2 0.00 0.00 0.00 53 1016.3
20260505182418 76 162 7.0 11.3 0.00 0.00 0.00 53 1016.7
20260505181914 75 168 9.6 9.6 0.00 0.00 0.00 49 1016.8
20260505181412 76 200 6.1 8.7 0.00 0.00 0.00 55 1017.1
20260505180908 76 173 8.7 9.6 0.00 0.00 0.00 54 1017.1
20260505180405 75 179 7.8 8.7 0.00 0.00 0.00 57 1017.1
20260505175902 76 179 7.8 13.0 0.00 0.00 0.00 60 1017.1
20260505175358 75 169 7.0 8.7 0.00 0.00 0.00 51 1017.1
20260505174854 75 160 7.8 9.6 0.00 0.00 0.00 51 1017.1
20260505174352 75 173 7.8 8.7 0.00 0.00 0.00 53 1017.2
20260505173848 75 163 4.3 7.8 0.00 0.00 0.00 51 1017.4
20260505173344 75 190 8.7 9.6 0.00 0.00 0.00 56 1017.1
20260505172842 75 191 6.1 7.8 0.00 0.00 0.00 57 1017.3
20260505172339 75 183 5.2 7.8 0.00 0.00 0.00 57 1017.4
20260505171839 75 174 4.3 7.0 0.00 0.00 0.00 55 1017.6
20260505171336 74 179 6.1 7.0 0.00 0.00 0.00 56 1017.8
20260505170832 74 188 7.8 8.7 0.00 0.00 0.00 60 1017.8
20260505170329 74 174 3.5 6.1 0.00 0.00 0.00 57 1018.0
20260505165825 74 195 5.2 7.8 0.00 0.00 0.00 56 1018.2
20260505165320 74 178 5.2 8.7 0.00 0.00 0.00 58 1018.1
20260505164816 74 182 4.3 6.1 0.00 0.00 0.00 57 1018.1
20260505164314 74 184 7.0 9.6 0.00 0.00 0.00 56 1018.0
20260505163812 74 189 8.7 9.6 0.00 0.00 0.00 58 1018.1
20260505163310 74 193 7.8 8.7 0.00 0.00 0.00 58 1018.3
20260505162808 74 193 7.0 7.8 0.00 0.00 0.00 61 1018.3
20260505162306 74 190 3.5 3.5 0.00 0.00 0.00 58 1018.1
20260505161801 74 171 3.5 3.5 0.00 0.00 0.00 61 1018.0
20260505161258 73 181 3.5 5.2 0.00 0.00 0.00 60 1018.2
20260505160755 73 196 1.7 3.5 0.00 0.00 0.00 61 1018.3
20260505160253 72 162 3.5 5.2 0.00 0.00 0.00 62 1018.3
20260505153232 71 185 3.5 3.5 0.00 0.00 0.00 64 1018.8
20260505152729 72 192 3.5 3.5 0.00 0.00 0.00 65 1018.7
20260505152226 70 179 3.5 3.5 0.00 0.00 0.00 64 1018.7
20260505151725 70 181 3.5 5.2 0.00 0.00 0.00 66 1018.5
20260505151223 70 190 3.5 6.1 0.00 0.00 0.00 65 1018.8
20260505150720 70 184 4.3 5.2 0.00 0.00 0.00 67 1018.5
20260505150218 70 187 2.6 5.2 0.00 0.00 0.00 66 1018.5
20260505140650 67 173 2.6 3.5 0.00 0.00 0.00 68 1018.7
20260505140148 67 185 2.6 5.2 0.00 0.00 0.00 67 1018.4
20260505130111 64 174 1.7 2.6 0.00 0.00 0.00 74 1018.9
20260505124601 61 168 0.9 0.9 0.00 0.00 0.00 86 1018.3
20260505124057 60 306 0.9 0.9 0.00 0.00 0.00 87 1018.3
20260505123553 59 294 0.9 1.7 0.00 0.00 0.00 85 1018.3
20260505123050 60 288 0.9 2.6 0.00 0.00 0.00 84 1018.1
20260505122547 60 317 0.9 1.7 0.00 0.00 0.00 83 1018.0
20260505122044 60 170 0.0 0.0 0.00 0.00 0.00 83 1017.8
20260505121540 61 295 0.9 1.7 0.00 0.00 0.00 83 1017.9
20260505121037 60 152 0.0 0.0 0.00 0.00 0.00 88 1017.8
20260505120534 58 290 0.9 0.9 0.00 0.00 0.00 88 1018.0
20260505120029 57 263 0.0 0.9 0.00 0.00 0.00 88 1017.9
20260505115524 56 296 1.7 1.7 0.00 0.00 0.00 89 1017.7
20260505115022 55 299 1.7 1.7 0.00 0.00 0.00 89 1018.0
20260505114519 55 312 0.9 1.7 0.00 0.00 0.00 90 1017.7
20260505114015 55 306 1.7 1.7 0.00 0.00 0.00 91 1017.7
20260505113512 54 289 1.7 2.6 0.00 0.00 0.00 91 1017.6
20260505113008 54 295 1.7 2.6 0.00 0.00 0.00 91 1017.4
20260505112504 53 304 1.7 2.6 0.00 0.00 0.00 91 1017.5
20260505112002 53 296 1.7 2.6 0.00 0.00 0.00 91 1017.4
20260505111456 53 298 2.6 2.6 0.00 0.00 0.00 91 1017.3
20260505110952 52 298 2.6 2.6 0.00 0.00 0.00 91 1017.4
20260505110449 52 293 1.7 2.6 0.00 0.00 0.00 91 1017.4
20260505101921 54 299 1.7 1.7 0.00 0.00 0.00 90 1016.7
20260505101421 53 296 1.7 2.6 0.00 0.00 0.00 90 1016.9
20260505100916 54 303 1.7 1.7 0.00 0.00 0.00 90 1016.7
20260505100413 54 293 1.7 1.7 0.00 0.00 0.00 89 1016.7
20260505095909 54 303 1.7 1.7 0.00 0.00 0.00 89 1016.4
20260505095406 54 292 1.7 1.7 0.00 0.00 0.00 89 1016.4
20260505094902 55 297 1.7 1.7 0.00 0.00 0.00 90 1016.7
20260505094400 54 303 0.9 1.7 0.00 0.00 0.00 89 1016.3
20260505093855 55 292 0.9 1.7 0.00 0.00 0.00 89 1016.6
20260505093353 54 304 0.9 1.7 0.00 0.00 0.00 90 1016.6
20260505092850 54 292 1.7 1.7 0.00 0.00 0.00 90 1016.7
20260505092348 54 293 0.9 1.7 0.00 0.00 0.00 90 1016.8
20260505091845 54 235 0.0 1.7 0.00 0.00 0.00 90 1016.7
20260505091343 54 277 0.9 1.7 0.00 0.00 0.00 90 1017.0
20260505090841 53 289 1.7 1.7 0.00 0.00 0.00 90 1016.7
20260505090339 53 294 1.7 1.7 0.00 0.00 0.00 89 1016.7
20260505085835 53 294 1.7 1.7 0.00 0.00 0.00 89 1016.8
20260505085333 53 301 1.7 1.7 0.00 0.00 0.00 88 1016.8
20260505084831 53 296 1.7 2.6 0.00 0.00 0.00 88 1016.5
20260505084329 53 308 1.7 2.6 0.00 0.00 0.00 88 1016.6
20260505083826 53 302 1.7 2.6 0.00 0.00 0.00 88 1016.9
20260505083324 54 287 1.7 2.6 0.00 0.00 0.00 88 1016.8
20260505082820 53 289 1.7 2.6 0.00 0.00 0.00 88 1016.7
20260505082316 53 307 1.7 2.6 0.00 0.00 0.00 87 1016.9
20260505081813 54 284 1.7 2.6 0.00 0.00 0.00 87 1016.7
20260505081310 54 289 1.7 2.6 0.00 0.00 0.00 87 1016.9
20260505080806 54 283 1.7 2.6 0.00 0.00 0.00 86 1017.0
20260505080302 54 295 2.6 2.6 0.00 0.00 0.00 86 1016.8
20260505075758 54 296 1.7 2.6 0.00 0.00 0.00 85 1016.9
20260505075255 55 286 1.7 1.7 0.00 0.00 0.00 86 1016.6
20260505074752 55 290 1.7 2.6 0.00 0.00 0.00 85 1016.9
20260505074249 55 301 1.7 2.6 0.00 0.00 0.00 86 1016.8
20260505073747 55 304 1.7 2.6 0.00 0.00 0.00 84 1016.8
20260505073245 55 303 1.7 1.7 0.00 0.00 0.00 83 1016.8
20260505072741 55 303 1.7 2.6 0.00 0.00 0.00 83 1016.6
20260505072237 56 315 1.7 1.7 0.00 0.00 0.00 83 1016.9
20260505071733 56 295 1.7 1.7 0.00 0.00 0.00 84 1017.0
20260505071230 56 303 2.6 3.5 0.00 0.00 0.00 83 1016.9
20260505070728 56 293 1.7 2.6 0.00 0.00 0.00 83 1016.9
20260505070224 56 292 1.7 1.7 0.00 0.00 0.00 83 1016.9
20260505065720 56 303 1.7 1.7 0.00 0.00 0.00 82 1016.9
20260505065217 56 295 1.7 1.7 0.00 0.00 0.00 81 1016.9
20260505064714 57 293 0.9 2.6 0.00 0.00 0.00 81 1017.1
20260505064212 57 280 0.9 1.7 0.00 0.00 0.00 82 1017.1
20260505063709 58 26 0.0 0.9 0.00 0.00 0.00 80 1017.1
20260505063205 58 278 0.9 1.7 0.00 0.00 0.00 80 1017.2
20260505062701 58 303 0.9 1.7 0.00 0.00 0.00 80 1017.2
20260505062159 58 275 1.7 1.7 0.00 0.00 0.00 80 1016.9
20260505061656 58 295 1.7 1.7 0.00 0.00 0.00 79 1017.2
20260505061154 58 292 1.7 1.7 0.00 0.00 0.00 77 1017.0
20260505060651 58 253 0.0 1.7 0.00 0.00 0.00 79 1017.1
20260505060147 59 294 0.9 2.6 0.00 0.00 0.00 76 1017.2
20260505055643 61 279 0.9 1.7 0.00 0.00 0.00 72 1017.3
20260505055140 61 221 0.9 1.7 0.00 0.00 0.00 74 1017.2
20260505054637 60 286 1.7 1.7 0.00 0.00 0.00 75 1017.1
20260505054135 60 278 1.7 2.6 0.00 0.00 0.00 76 1017.2
20260505053632 59 283 0.0 1.7 0.00 0.00 0.00 76 1017.2
20260505053128 59 294 1.7 1.7 0.00 0.00 0.00 76 1017.1
20260505052626 59 287 0.9 1.7 0.00 0.00 0.00 77 1017.1
20260505052123 59 289 1.7 2.6 0.00 0.00 0.00 76 1017.1
20260505051620 59 288 1.7 1.7 0.00 0.00 0.00 75 1017.0
20260505051118 60 303 1.7 2.6 0.00 0.00 0.00 74 1017.0
20260505050615 60 280 1.7 2.6 0.00 0.00 0.00 74 1017.1
20260505050114 60 314 1.7 2.6 0.00 0.00 0.00 77 1017.0
20260505041543 60 295 1.7 2.6 0.00 0.00 0.00 73 1017.2
20260505041041 61 286 1.7 1.7 0.00 0.00 0.00 75 1017.0
20260505040538 61 296 1.7 2.6 0.00 0.00 0.00 73 1017.0
20260505040035 61 299 1.7 2.6 0.00 0.00 0.00 71 1017.1
20260505035531 62 297 1.7 2.6 0.00 0.00 0.00 72 1017.0
20260505035028 61 295 1.7 1.7 0.00 0.00 0.00 73 1017.2
20260505034524 61 292 1.7 1.7 0.00 0.00 0.00 74 1016.9
20260505034021 61 289 1.7 2.6 0.00 0.00 0.00 72 1017.1
20260505033518 61 302 1.7 1.7 0.00 0.00 0.00 74 1017.2
20260505033016 61 284 1.7 2.6 0.00 0.00 0.00 71 1017.1
20260505032514 62 296 1.7 1.7 0.00 0.00 0.00 72 1016.9
20260505032010 62 301 1.7 2.6 0.00 0.00 0.00 71 1017.0
20260505031508 62 264 0.9 1.7 0.00 0.00 0.00 71 1016.9
20260505031004 62 311 0.9 1.7 0.00 0.00 0.00 69 1016.9
20260505030501 62 294 1.7 1.7 0.00 0.00 0.00 69 1017.0
20260505025955 63 243 0.9 1.7 0.00 0.00 0.00 68 1017.0
20260505025453 63 297 1.7 1.7 0.00 0.00 0.00 66 1017.2
20260505024952 63 299 1.7 2.6 0.00 0.00 0.00 68 1017.0
20260505024448 63 295 1.7 1.7 0.00 0.00 0.00 67 1017.1
20260505023946 64 308 1.7 2.6 0.00 0.00 0.00 65 1017.2
20260505023442 63 280 1.7 1.7 0.00 0.00 0.00 67 1017.1
20260505022940 64 290 1.7 1.7 0.00 0.00 0.00 68 1017.1
20260505022437 64 294 1.7 1.7 0.00 0.00 0.00 66 1017.1
20260505021934 64 292 1.7 1.7 0.00 0.00 0.00 69 1017.1
20260505021431 64 308 1.7 2.6 0.00 0.00 0.00 67 1017.0
20260505020926 64 301 1.7 1.7 0.00 0.00 0.00 68 1016.9
20260505020422 65 301 1.7 1.7 0.00 0.00 0.00 67 1016.9
20260505015919 64 299 1.7 2.6 0.00 0.00 0.00 66 1016.8
20260505015416 66 277 2.6 3.5 0.00 0.00 0.00 62 1016.8
20260505014914 65 290 1.7 1.7 0.00 0.00 0.00 64 1016.9
20260505014410 67 289 0.9 1.7 0.00 0.00 0.00 65 1016.8
20260505013907 67 301 1.7 1.7 0.00 0.00 0.00 62 1016.6
20260505013404 67 270 0.9 1.7 0.00 0.00 0.00 62 1016.7
20260505012902 68 231 0.9 1.7 0.00 0.00 0.00 64 1016.6
20260505012400 68 271 0.0 1.7 0.00 0.00 0.00 61 1016.7
20260505011856 68 291 1.7 1.7 0.00 0.00 0.00 60 1016.7
20260505011353 69 339 0.0 1.7 0.00 0.00 0.00 61 1016.5
20260505010849 70 163 0.0 1.7 0.00 0.00 0.00 62 1016.6
20260505010345 71 188 2.6 3.5 0.00 0.00 0.00 61 1016.6
20260505005841 71 178 2.6 5.2 0.00 0.00 0.00 60 1016.3
20260505005338 73 192 3.5 5.2 0.00 0.00 0.00 62 1016.4
20260505004836 73 183 4.3 6.1 0.00 0.00 0.00 56 1016.2
20260505004332 73 190 5.2 6.1 0.00 0.00 0.00 57 1016.3
20260505003829 73 184 5.2 6.1 0.00 0.00 0.00 57 1016.3
20260505003326 73 194 5.2 6.1 0.00 0.00 0.00 60 1016.3
20260505002822 73 181 4.3 6.1 0.00 0.00 0.00 55 1016.2
20260505002319 74 185 5.2 7.0 0.00 0.00 0.00 61 1016.3
20260505001818 74 180 5.2 7.0 0.00 0.00 0.00 59 1016.1
20260505001314 74 183 7.0 9.6 0.00 0.00 0.00 53 1016.1
20260505000812 74 185 6.1 8.7 0.00 0.00 0.00 55 1016.0
20260505000310 74 181 6.1 7.8 0.00 0.00 0.00 55 1016.0
20260504235806 74 190 7.0 7.8 0.00 0.00 0.00 55 1016.0
20260504235304 74 187 7.0 8.7 0.00 0.00 0.00 52 1016.0
20260504234759 74 201 7.0 7.8 0.00 0.00 0.00 56 1015.9
20260504234257 74 177 7.0 8.7 0.00 0.00 0.00 55 1016.0
20260504233753 74 189 7.8 8.7 0.00 0.00 0.00 58 1016.1
20260504233249 74 198 6.1 9.6 0.00 0.00 0.00 56 1016.1
20260504232746 75 222 3.5 7.8 0.00 0.00 0.00 59 1016.1
20260504232243 75 189 7.8 9.6 0.00 0.00 0.00 60 1016.0
20260504231740 75 189 7.0 8.7 0.00 0.00 0.00 56 1016.0
20260504231236 76 186 7.8 8.7 0.00 0.00 0.00 59 1016.0